Hourly Weather Skarżysko-Kamienna

Today, 12 July, Sunday

Time Temperature Precipitation Wind Pressure Humidity
00:00 +12°C° 0.5 mm 1 mps 746 mmHg 96%
01:00 +11°C° 0 mm 1 mps 747 mmHg 95%
02:00 +11°C° 0 mm 1 mps 746 mmHg 95%
03:00 +10°C° 0 mm 2 mps 746 mmHg 94%
04:00 +10°C° 0 mm 2 mps 746 mmHg 94%
05:00 +12°C° 0 mm 2 mps 746 mmHg 91%
06:00 +13°C° 0 mm 2 mps 747 mmHg 87%
07:00 +14°C° 0 mm 2 mps 747 mmHg 83%
08:00 +14°C° 0.1 mm 3 mps 747 mmHg 74%
09:00 +17°C° 0.1 mm 3 mps 747 mmHg 65%
10:00 +18°C° 0.1 mm 3 mps 747 mmHg 56%
11:00 +19°C° 0.2 mm 3 mps 747 mmHg 56%
12:00 +19°C° 0.2 mm 3 mps 746 mmHg 56%
13:00 +20°C° 0.2 mm 4 mps 746 mmHg 55%
14:00 +20°C° 0.3 mm 4 mps 746 mmHg 57%
15:00 +19°C° 0.3 mm 4 mps 746 mmHg 59%
16:00 +19°C° 0.3 mm 4 mps 746 mmHg 62%
17:00 +18°C° 0 mm 3 mps 746 mmHg 66%
18:00 +17°C° 0 mm 3 mps 746 mmHg 71%
19:00 +16°C° 0 mm 2 mps 746 mmHg 75%
20:00 +15°C° 0 mm 2 mps 746 mmHg 78%
21:00 +14°C° 0 mm 2 mps 746 mmHg 82%
22:00 +12°C° 0 mm 2 mps 746 mmHg 85%
23:00 +12°C° 0 mm 2 mps 746 mmHg 86%

Tomorrow, 13 July, Monday

Time Temperature Precipitation Wind Pressure Humidity
00:00 +10°C° 0 mm 2 mps 746 mmHg 87%
01:00 +10°C° 0 mm 2 mps 747 mmHg 87%
02:00 +10°C° 0 mm 2 mps 746 mmHg 89%
03:00 +9°C° 0 mm 2 mps 746 mmHg 90%
04:00 +9°C° 0 mm 2 mps 746 mmHg 91%
05:00 +12°C° 0 mm 2 mps 746 mmHg 85%
06:00 +12°C° 0 mm 3 mps 746 mmHg 78%
07:00 +14°C° 0 mm 3 mps 746 mmHg 72%
08:00 +16°C° 0 mm 3 mps 746 mmHg 67%
09:00 +17°C° 0 mm 4 mps 746 mmHg 62%
10:00 +18°C° 0 mm 4 mps 746 mmHg 57%
11:00 +19°C° 0.1 mm 4 mps 746 mmHg 59%
12:00 +19°C° 0.1 mm 4 mps 745 mmHg 61%
13:00 +19°C° 0.1 mm 4 mps 745 mmHg 63%
14:00 +19°C° 0.1 mm 4 mps 745 mmHg 63%
15:00 +19°C° 0.1 mm 4 mps 744 mmHg 64%
16:00 +19°C° 0.1 mm 4 mps 744 mmHg 65%
17:00 +18°C° 0.1 mm 3 mps 744 mmHg 71%
18:00 +17°C° 0.1 mm 3 mps 744 mmHg 77%
19:00 +16°C° 0.1 mm 2 mps 744 mmHg 83%
20:00 +15°C° 0 mm 2 mps 744 mmHg 86%
21:00 +14°C° 0 mm 1 mps 744 mmHg 89%
22:00 +13°C° 0 mm 1 mps 744 mmHg 92%
23:00 +13°C° 0 mm 1 mps 744 mmHg 93%

Day after tomorrow, 14 July, Tuesday

Time Temperature Precipitation Wind Pressure Humidity
00:00 +13°C° 0 mm 1 mps 744 mmHg 93%
01:00 +12°C° 0 mm 1 mps 744 mmHg 94%
02:00 +12°C° 0 mm 1 mps 744 mmHg 94%
03:00 +12°C° 0 mm 1 mps 743 mmHg 95%
04:00 +12°C° 0 mm 1 mps 743 mmHg 95%
05:00 +13°C° 0 mm 1 mps 743 mmHg 89%
06:00 +15°C° 0 mm 1 mps 744 mmHg 84%
07:00 +18°C° 0 mm 1 mps 744 mmHg 78%
08:00 +19°C° 0.1 mm 1 mps 744 mmHg 72%
09:00 +21°C° 0.1 mm 1 mps 743 mmHg 65%
10:00 +22°C° 0.1 mm 1 mps 743 mmHg 59%
11:00 +22°C° 0.1 mm 1 mps 743 mmHg 58%
12:00 +22°C° 0.1 mm 1 mps 743 mmHg 58%
13:00 +22°C° 0.1 mm 1 mps 743 mmHg 57%
14:00 +23°C° 0.1 mm 1 mps 742 mmHg 56%
15:00 +23°C° 0.1 mm 1 mps 742 mmHg 55%
16:00 +23°C° 0.1 mm 1 mps 741 mmHg 53%
17:00 +22°C° 0.1 mm 1 mps 741 mmHg 60%
18:00 +21°C° 0.1 mm 1 mps 741 mmHg 67%
19:00 +19°C° 0.1 mm 1 mps 741 mmHg 74%
20:00 +18°C° 0 mm 1 mps 741 mmHg 78%
21:00 +16°C° 0 mm 1 mps 741 mmHg 81%
22:00 +15°C° 0 mm 1 mps 741 mmHg 85%
23:00 +15°C° 0 mm 1 mps 741 mmHg 85%

15 July, Wednesday

Time Temperature Precipitation Wind Pressure Humidity
00:00 +14°C° 0 mm 1 mps 741 mmHg 86%
01:00 +14°C° 0 mm 1 mps 741 mmHg 87%
02:00 +14°C° 0 mm 1 mps 741 mmHg 88%
03:00 +14°C° 0 mm 1 mps 741 mmHg 89%
04:00 +13°C° 0 mm 1 mps 740 mmHg 90%
05:00 +15°C° 0 mm 1 mps 740 mmHg 85%
06:00 +17°C° 0 mm 2 mps 740 mmHg 79%
07:00 +19°C° 0 mm 2 mps 740 mmHg 74%
08:00 +20°C° 0.2 mm 2 mps 740 mmHg 69%
09:00 +21°C° 0.2 mm 3 mps 740 mmHg 65%
10:00 +22°C° 0.2 mm 3 mps 740 mmHg 60%
11:00 +24°C° 0.1 mm 3 mps 739 mmHg 58%
12:00 +24°C° 0.1 mm 3 mps 739 mmHg 55%
13:00 +25°C° 0.1 mm 3 mps 739 mmHg 52%
14:00 +25°C° 0.1 mm 3 mps 738 mmHg 53%
15:00 +25°C° 0.1 mm 3 mps 738 mmHg 53%
16:00 +25°C° 0.1 mm 3 mps 738 mmHg 53%
17:00 +24°C° 0.1 mm 2 mps 738 mmHg 60%
18:00 +21°C° 0.1 mm 2 mps 738 mmHg 66%
19:00 +20°C° 0.1 mm 2 mps 737 mmHg 72%
20:00 +19°C° 0.6 mm 2 mps 737 mmHg 77%
21:00 +18°C° 0.6 mm 2 mps 737 mmHg 82%
22:00 +17°C° 0.6 mm 2 mps 737 mmHg 87%
23:00 +16°C° 0.2 mm 3 mps 737 mmHg 89%

16 July, Thursday

Time Temperature Precipitation Wind Pressure Humidity
00:00 +16°C° 0.2 mm 3 mps 737 mmHg 91%
01:00 +15°C° 0.2 mm 4 mps 737 mmHg 93%
02:00 +15°C° 1.4 mm 4 mps 736 mmHg 94%
03:00 +16°C° 1.4 mm 3 mps 736 mmHg 95%
04:00 +14°C° 1.4 mm 3 mps 736 mmHg 96%
05:00 +15°C° 0.3 mm 4 mps 736 mmHg 93%
06:00 +15°C° 0.3 mm 4 mps 736 mmHg 91%
07:00 +15°C° 0.3 mm 4 mps 737 mmHg 88%
08:00 +17°C° 0.4 mm 4 mps 737 mmHg 84%
09:00 +16°C° 0.4 mm 5 mps 737 mmHg 81%
10:00 +17°C° 0.4 mm 5 mps 737 mmHg 77%
11:00 +17°C° 0.8 mm 5 mps 737 mmHg 76%
12:00 +19°C° 0.8 mm 5 mps 737 mmHg 74%
13:00 +19°C° 0.8 mm 6 mps 737 mmHg 73%
14:00 +19°C° 0.5 mm 5 mps 736 mmHg 73%
15:00 +19°C° 0.5 mm 5 mps 736 mmHg 73%
16:00 +17°C° 0.5 mm 5 mps 736 mmHg 73%
17:00 +18°C° 0.1 mm 4 mps 736 mmHg 76%
18:00 +17°C° 0.1 mm 3 mps 736 mmHg 78%
19:00 +16°C° 0.1 mm 2 mps 736 mmHg 80%
20:00 +15°C° 0.2 mm 2 mps 736 mmHg 84%
21:00 +14°C° 0.2 mm 2 mps 736 mmHg 88%
22:00 +14°C° 0.2 mm 2 mps 736 mmHg 91%
23:00 +13°C° 0.5 mm 2 mps 736 mmHg 93%

17 July, Friday

Time Temperature Precipitation Wind Pressure Humidity
00:00 +13°C° 0.5 mm 2 mps 735 mmHg 94%
01:00 +13°C° 0.5 mm 1 mps 735 mmHg 95%
02:00 +13°C° 0.9 mm 2 mps 735 mmHg 95%
03:00 +13°C° 0.9 mm 2 mps 735 mmHg 95%
04:00 +12°C° 0.9 mm 3 mps 735 mmHg 96%
05:00 +12°C° 0.5 mm 3 mps 735 mmHg 95%
06:00 +12°C° 0.5 mm 3 mps 735 mmHg 94%
07:00 +12°C° 0.5 mm 3 mps 736 mmHg 93%
08:00 +14°C° 0.2 mm 3 mps 736 mmHg 88%
09:00 +16°C° 0.2 mm 3 mps 737 mmHg 83%
10:00 +17°C° 0.2 mm 3 mps 737 mmHg 78%
11:00 +18°C° 0.2 mm 3 mps 737 mmHg 76%
12:00 +18°C° 0.2 mm 4 mps 737 mmHg 74%
13:00 +19°C° 0.2 mm 5 mps 737 mmHg 72%
14:00 +19°C° 0.1 mm 4 mps 737 mmHg 71%
15:00 +20°C° 0.1 mm 4 mps 737 mmHg 70%
16:00 +20°C° 0.1 mm 4 mps 738 mmHg 69%
17:00 +19°C° 0.2 mm 3 mps 738 mmHg 75%
18:00 +18°C° 0.2 mm 3 mps 738 mmHg 81%
19:00 +18°C° 0.2 mm 2 mps 738 mmHg 87%
20:00 +17°C° 0.1 mm 2 mps 738 mmHg 89%
21:00 +16°C° 0.1 mm 2 mps 739 mmHg 92%
22:00 +15°C° 0.1 mm 2 mps 739 mmHg 94%
23:00 +14°C° 0 mm 2 mps 739 mmHg 95%
Show more